Simultaneous Nadir Overpasses (SNOs) Predictions

Prediction of SNOs between AQUA and GOES-15 Satellite Orbit:

Table of predicted SNOs for the next 14.0 days since TLE Epoch: 6/22/2018
Index Date Time (AQUA) AQUA Lat,Lon GOES-15 Lat,Lon Distance(km) Time Diff (sec)
1 06/23/2018 22:23:12 0.70,-131.91 0.06,-134.96 346.97 80
2 06/24/2018 10:44:28 0.34,-137.07 -0.09,-134.97 238.72 80
3 06/26/2018 10:32:17 -0.31,-134.12 -0.09,-135.04 105.28 80
4 06/26/2018 22:53:41 -0.78,-139.32 0.11,-135.07 482.79 80
5 06/28/2018 10:20:05 -0.90,-131.16 -0.09,-135.11 448.70 80
6 06/28/2018 22:41:30 -0.18,-136.36 0.11,-135.14 139.46 80
7 06/30/2018 22:29:19 0.48,-133.41 0.11,-135.20 203.46 80
8 07/01/2018 10:50:34 0.57,-138.58 -0.13,-135.21 382.73 80
9 07/03/2018 10:38:22 -0.02,-135.61 -0.12,-135.26 40.45 80
10 07/05/2018 10:26:12 -0.68,-132.66 -0.12,-135.32 301.48 80
11 07/05/2018 22:47:36 -0.37,-137.87 0.14,-135.34 287.02 80




NCC Satellite Simultaneous Nadir Overpasses (SNOs) Prediction Service
